When you browse on this site, cookies collect data to enhance your experience and personalize the content and advertising you see.
Visit our Privacy Policy to learn more. By continuing to use the site, you agree to this use of cookies and data.
  • En España
  • Lista de países
  • Para 7 días
  • Temperatura del agua
  • El tiempo en el mapa
  • Informadores
  • user-avatar
    Iniciar sesión

    Tiempo cada hora Öskemen

    Hoy, 20 Septiembre, Viernes

    Tiempo Temperatura Precipitaciones Viento Presión Humedad
    00:00 +16°C° 0 mm 2 mps 731 mmHg 51%
    01:00 +16°C° 0 mm 2 mps 731 mmHg 51%
    02:00 +15°C° 0 mm 2 mps 731 mmHg 51%
    03:00 +15°C° 0 mm 2 mps 730 mmHg 51%
    04:00 +15°C° 0 mm 2 mps 730 mmHg 52%
    05:00 +14°C° 0 mm 2 mps 731 mmHg 52%
    06:00 +14°C° 0 mm 2 mps 731 mmHg 53%
    07:00 +17°C° 0 mm 2 mps 731 mmHg 47%
    08:00 +19°C° 0 mm 3 mps 731 mmHg 42%
    09:00 +22°C° 0 mm 3 mps 731 mmHg 36%
    10:00 +25°C° 0 mm 3 mps 731 mmHg 31%
    11:00 +27°C° 0 mm 4 mps 731 mmHg 27%
    12:00 +30°C° 0 mm 4 mps 731 mmHg 22%
    13:00 +30°C° 0 mm 4 mps 731 mmHg 21%
    14:00 +32°C° 0 mm 4 mps 730 mmHg 20%
    15:00 +32°C° 0 mm 5 mps 730 mmHg 19%
    16:00 +29°C° 0 mm 4 mps 730 mmHg 23%
    17:00 +28°C° 0 mm 3 mps 730 mmHg 27%
    18:00 +26°C° 0 mm 2 mps 730 mmHg 31%
    19:00 +24°C° 0 mm 2 mps 731 mmHg 35%
    20:00 +22°C° 0 mm 1 mps 731 mmHg 39%
    21:00 +20°C° 0 mm 1 mps 731 mmHg 43%
    22:00 +19°C° 0 mm 1 mps 731 mmHg 45%
    23:00 +18°C° 0 mm 1 mps 731 mmHg 47%

    Mañana, 21 Septiembre, Sábado

    Tiempo Temperatura Precipitaciones Viento Presión Humedad
    00:00 +18°C° 0 mm 1 mps 731 mmHg 50%
    01:00 +16°C° 0 mm 1 mps 731 mmHg 51%
    02:00 +15°C° 0 mm 1 mps 731 mmHg 52%
    03:00 +15°C° 0 mm 1 mps 731 mmHg 54%
    04:00 +14°C° 0 mm 1 mps 731 mmHg 56%
    05:00 +13°C° 0 mm 0 mps 732 mmHg 59%
    06:00 +12°C° 0 mm 0 mps 732 mmHg 62%
    07:00 +15°C° 0 mm 1 mps 732 mmHg 57%
    08:00 +18°C° 0 mm 1 mps 733 mmHg 51%
    09:00 +20°C° 0 mm 1 mps 733 mmHg 45%
    10:00 +22°C° 0 mm 1 mps 733 mmHg 40%
    11:00 +23°C° 0 mm 2 mps 733 mmHg 35%
    12:00 +25°C° 0 mm 3 mps 733 mmHg 29%
    13:00 +26°C° 0 mm 3 mps 733 mmHg 28%
    14:00 +26°C° 0 mm 4 mps 732 mmHg 27%
    15:00 +27°C° 0 mm 4 mps 732 mmHg 26%
    16:00 +25°C° 0 mm 4 mps 732 mmHg 30%
    17:00 +22°C° 0 mm 3 mps 732 mmHg 33%
    18:00 +21°C° 0 mm 3 mps 732 mmHg 36%
    19:00 +19°C° 0 mm 2 mps 732 mmHg 40%
    20:00 +18°C° 0 mm 1 mps 732 mmHg 45%
    21:00 +15°C° 0 mm 1 mps 732 mmHg 49%
    22:00 +14°C° 0 mm 1 mps 732 mmHg 51%
    23:00 +13°C° 0 mm 0 mps 732 mmHg 54%

    Pasado mañana, 22 Septiembre, Domingo

    Tiempo Temperatura Precipitaciones Viento Presión Humedad
    00:00 +12°C° 0 mm 0 mps 731 mmHg 56%
    01:00 +12°C° 0 mm 0 mps 731 mmHg 58%
    02:00 +12°C° 0 mm 0 mps 731 mmHg 60%
    03:00 +11°C° 0 mm 0 mps 730 mmHg 62%
    04:00 +12°C° 0 mm 1 mps 730 mmHg 64%
    05:00 +12°C° 0 mm 1 mps 730 mmHg 66%
    06:00 +12°C° 0 mm 1 mps 730 mmHg 68%
    07:00 +15°C° 0 mm 1 mps 730 mmHg 61%
    08:00 +18°C° 0 mm 1 mps 730 mmHg 54%
    09:00 +21°C° 0 mm 1 mps 729 mmHg 47%
    10:00 +24°C° 0 mm 2 mps 729 mmHg 39%
    11:00 +27°C° 0 mm 3 mps 729 mmHg 32%
    12:00 +30°C° 0 mm 3 mps 729 mmHg 25%
    13:00 +32°C° 0 mm 4 mps 728 mmHg 22%
    14:00 +33°C° 0 mm 5 mps 728 mmHg 20%
    15:00 +34°C° 0 mm 6 mps 727 mmHg 17%
    16:00 +32°C° 0 mm 5 mps 727 mmHg 21%
    17:00 +29°C° 0 mm 4 mps 726 mmHg 24%
    18:00 +27°C° 0 mm 3 mps 726 mmHg 28%
    19:00 +25°C° 0 mm 3 mps 726 mmHg 30%
    20:00 +24°C° 0 mm 3 mps 726 mmHg 32%
    21:00 +21°C° 0 mm 3 mps 725 mmHg 35%
    22:00 +21°C° 0 mm 4 mps 725 mmHg 32%
    23:00 +21°C° 0 mm 4 mps 725 mmHg 30%

    23 Septiembre, Lunes

    Tiempo Temperatura Precipitaciones Viento Presión Humedad
    00:00 +21°C° 0 mm 5 mps 724 mmHg 28%
    01:00 +21°C° 0 mm 4 mps 724 mmHg 29%
    02:00 +20°C° 0 mm 4 mps 724 mmHg 30%
    03:00 +19°C° 0 mm 4 mps 724 mmHg 30%
    04:00 +19°C° 0 mm 3 mps 724 mmHg 30%
    05:00 +19°C° 0 mm 2 mps 725 mmHg 31%
    06:00 +19°C° 0 mm 2 mps 725 mmHg 31%
    07:00 +21°C° 0 mm 2 mps 726 mmHg 30%
    08:00 +23°C° 0 mm 2 mps 726 mmHg 29%
    09:00 +24°C° 0 mm 2 mps 727 mmHg 28%
    10:00 +22°C° 0 mm 4 mps 728 mmHg 35%
    11:00 +22°C° 0 mm 6 mps 729 mmHg 43%
    12:00 +21°C° 0 mm 8 mps 730 mmHg 50%
    13:00 +20°C° 0 mm 7 mps 731 mmHg 52%
    14:00 +17°C° 0 mm 5 mps 731 mmHg 53%
    15:00 +17°C° 0 mm 4 mps 732 mmHg 55%
    16:00 +15°C° 0 mm 4 mps 733 mmHg 55%
    17:00 +14°C° 0 mm 3 mps 733 mmHg 55%
    18:00 +14°C° 0 mm 2 mps 733 mmHg 55%
    19:00 +13°C° 0 mm 2 mps 733 mmHg 61%
    20:00 +11°C° 0 mm 1 mps 733 mmHg 66%
    21:00 +9°C° 0 mm 0 mps 733 mmHg 72%
    22:00 +8°C° 0 mm 0 mps 733 mmHg 74%
    23:00 +9°C° 0 mm 1 mps 733 mmHg 75%

    24 Septiembre, Martes

    Tiempo Temperatura Precipitaciones Viento Presión Humedad
    00:00 +8°C° 0 mm 1 mps 733 mmHg 77%
    01:00 +8°C° 0 mm 1 mps 732 mmHg 78%
    02:00 +8°C° 0 mm 1 mps 732 mmHg 80%
    03:00 +8°C° 0 mm 1 mps 732 mmHg 81%
    04:00 +8°C° 0 mm 1 mps 731 mmHg 81%
    05:00 +7°C° 0 mm 2 mps 731 mmHg 80%
    06:00 +7°C° 0 mm 2 mps 731 mmHg 80%
    07:00 +10°C° 0 mm 2 mps 730 mmHg 69%
    08:00 +13°C° 0 mm 2 mps 730 mmHg 57%
    09:00 +16°C° 0 mm 2 mps 730 mmHg 46%
    10:00 +19°C° 0 mm 3 mps 730 mmHg 39%
    11:00 +21°C° 0 mm 4 mps 730 mmHg 31%
    12:00 +23°C° 0 mm 5 mps 730 mmHg 24%
    13:00 +25°C° 0 mm 5 mps 730 mmHg 22%
    14:00 +24°C° 0 mm 6 mps 729 mmHg 20%
    15:00 +24°C° 0 mm 6 mps 729 mmHg 19%
    16:00 +23°C° 0 mm 5 mps 729 mmHg 20%
    17:00 +21°C° 0 mm 3 mps 729 mmHg 22%
    18:00 +19°C° 0 mm 2 mps 729 mmHg 24%
    19:00 +17°C° 0 mm 2 mps 730 mmHg 33%
    20:00 +15°C° 0 mm 2 mps 730 mmHg 42%
    21:00 +13°C° 0 mm 2 mps 731 mmHg 51%
    22:00 +12°C° 0 mm 2 mps 731 mmHg 56%
    23:00 +11°C° 0 mm 1 mps 731 mmHg 61%

    25 Septiembre, Miércoles

    Tiempo Temperatura Precipitaciones Viento Presión Humedad
    00:00 +10°C° 0 mm 1 mps 731 mmHg 65%
    01:00 +10°C° 0 mm 1 mps 731 mmHg 67%
    02:00 +10°C° 0 mm 1 mps 731 mmHg 68%
    03:00 +9°C° 0 mm 1 mps 731 mmHg 69%
    04:00 +9°C° 0 mm 1 mps 731 mmHg 69%
    05:00 +9°C° 0 mm 1 mps 731 mmHg 70%
    06:00 +9°C° 0 mm 1 mps 731 mmHg 70%
    07:00 +9°C° 0 mm 0 mps 731 mmHg 64%
    08:00 +11°C° 0 mm 0 mps 731 mmHg 58%
    09:00 +12°C° 0 mm 0 mps 732 mmHg 52%
    10:00 +14°C° 0 mm 2 mps 732 mmHg 47%
    11:00 +16°C° 0 mm 3 mps 732 mmHg 42%
    12:00 +16°C° 0 mm 5 mps 733 mmHg 36%
    13:00 +16°C° 0 mm 5 mps 733 mmHg 33%
    14:00 +16°C° 0 mm 5 mps 733 mmHg 29%
    15:00 +15°C° 0 mm 5 mps 733 mmHg 26%
    16:00 +14°C° 0 mm 4 mps 733 mmHg 27%
    17:00 +13°C° 0 mm 4 mps 734 mmHg 28%
    18:00 +11°C° 0 mm 3 mps 734 mmHg 28%
    19:00 +10°C° 0 mm 2 mps 735 mmHg 31%
    20:00 +9°C° 0 mm 1 mps 736 mmHg 33%
    21:00 +7°C° 0 mm 1 mps 736 mmHg 36%
    22:00 +7°C° 0 mm 1 mps 737 mmHg 36%
    23:00 +6°C° 0 mm 0 mps 737 mmHg 37%
    Mostrar más